CZ-2D R/B (28738 NORAD) Tracking and Keplerian Element Data

This shows tracking and keplerian element data for the satellite.

Feedback or suggestion? Click here.




ElementValue
Catalog28738
NameCZ-2D R/B
Epoch Orbit1886
Epoch Day12.93290725
Epoch Year2024
RAAN14.2828
Inclination97.3604
Eccentricity0.0009071
Argument of Perigee347.701
Mean Anonmoly12.4003
Mean Motion15.22026399
Decay Rate0.00012078
L11 28738U 05024B 24012.93290725 .00012078 00000+0 53062-3 0 9991
L22 28738 97.3604 14.2828 0009071 347.7010 12.4003 15.22026399 18865



Live tracking and technical data element details for CZ-2D R/B (NORAD 28738). CZ-2D R/B can be tracked NOW for your location showing map with azimuth and elevation plus other details from your city location.







IsCatalogInMostPopularTable: catalog: 28738, numindb: 573
Update: records affected: 1



GetName: 28738 CZ-2D R/B

Hit Count: updated at: Sun, 14 Apr 2024 23:12:28 GMT